Change the Weather History Date:

Tuesday, April 23, 2013

  Actual Average Record
Temperature  
Mean Temperature 32 °F -  
Max Temperature 34 °F 74 °F 99 °F (1989)
Min Temperature 30 °F 44 °F 30 °F (2013)
Degree Days  
Heating Degree Days 33    
Moisture  
Dew Point 29 °F    
Average Humidity 89    
Maximum Humidity 100    
Minimum Humidity 70    
Precipitation  
Precipitation 0.00 in - - ()
Sea Level Pressure  
Sea Level Pressure 30.18 in    
Wind  
Wind Speed 21 mph (North)    
Max Wind Speed 26 mph    
Max Gust Speed 40 mph    
Visibility 7 miles    
Events Rain , Snow    
Averages and records for this station are not official NWS values.
T = Trace of Precipitation, MM = Missing Value Source: NWS Daily Summary

Daily Weather History Graph

Daily Weather History Graph

Search for Another Location

Airport or City:

Trip Planner

Search our weather history database for the weather conditions in past years. The results will help you decide how hot, cold, wet, or windy it might be!

Date:

Astronomy

Apr. 23, 2013 Rise Set
Actual Time 6:55 AM CDT 8:20 PM CDT
Civil Twilight 6:28 AM CDT 8:47 PM CDT
Nautical Twilight 5:55 AM CDT 9:19 PM CDT
Astronomical Twilight 5:21 AM CDT 9:53 PM CDT
Moon 6:19 PM CDT (4/23) 5:20 AM CDT (4/23)
Length of Visible Light 14h 19m
Length of Day
13h 25m
Waxing Gibbous, 94% of the Moon is Illuminated
Apr 23
Waxing Gibbous
Apr 25
Full
May 2
Last Quarter
May 9
New
May 17
First Quarter

Hourly Weather History & Observations

Time (CDT) Temp. Windchill Dew Point Humidity Pressure Visibility Wind Dir Wind Speed Gust Speed Precip Events Conditions
12:53 AM 34.0 °F 21.0 °F 32.0 °F 92% 30.04 in 8.0 mi North 26.5 mph 40.3 mph 0.00 in Rain Light Rain
1:41 AM 33.8 °F 20.8 °F 32.0 °F 93% 30.06 in 5.0 mi North 26.5 mph 33.4 mph 0.00 in Snow Light Snow
1:53 AM 33.1 °F 20.6 °F 30.9 °F 92% 30.04 in 4.0 mi North 23.0 mph 32.2 mph 0.00 in Snow Light Snow
2:14 AM 33.8 °F 21.9 °F 30.2 °F 87% 30.07 in 6.0 mi North 21.9 mph 35.7 mph 0.00 in Rain Light Freezing Rain
2:28 AM 33.8 °F 21.3 °F 30.2 °F 87% 30.07 in 4.0 mi North 24.2 mph 32.2 mph 0.00 in Snow Light Snow
2:38 AM 33.8 °F 22.5 °F 30.2 °F 87% 30.08 in 3.0 mi North 19.6 mph 36.8 mph 0.00 in Snow Light Snow
2:45 AM 33.8 °F 22.2 °F 30.2 °F 87% 30.08 in 3.0 mi North 20.7 mph 31.1 mph 0.00 in Snow Light Snow
2:53 AM 32.0 °F 18.6 °F 30.2 °F 93% 30.06 in 2.5 mi North 25.3 mph 35.7 mph N/A Snow Light Snow
2:59 AM 32.0 °F 20.1 °F 30.2 °F 93% 30.06 in 3.0 mi North 19.6 mph 35.7 mph 0.00 in Snow Light Snow
3:37 AM 32.0 °F 19.8 °F 30.2 °F 93% 30.07 in 4.0 mi North 20.7 mph 33.4 mph 0.00 in Snow Light Snow
3:53 AM 32.0 °F 18.6 °F 30.0 °F 92% 30.05 in 5.0 mi North 25.3 mph 33.4 mph 0.00 in Snow Light Snow
4:18 AM 32.0 °F 18.9 °F 30.2 °F 93% 30.08 in 3.0 mi North 24.2 mph 32.2 mph 0.00 in Snow Light Snow
4:53 AM 30.2 °F 16.2 °F 30.2 °F 100% 30.09 in 4.0 mi North 25.3 mph 31.1 mph N/A Snow Light Snow
5:17 AM 30.2 °F 17.4 °F 30.2 °F 100% 30.10 in 6.0 mi North 20.7 mph 34.5 mph 0.00 in Rain Light Freezing Rain
5:53 AM 30.9 °F 17.2 °F 28.9 °F 92% 30.09 in 5.0 mi North 25.3 mph 32.2 mph 0.00 in Rain Light Freezing Rain
6:37 AM 30.2 °F 18.1 °F 28.4 °F 93% 30.12 in 5.0 mi North 18.4 mph 28.8 mph 0.00 in Rain Light Freezing Rain
6:53 AM 30.9 °F 18.7 °F 28.9 °F 92% 30.11 in 7.0 mi North 19.6 mph 33.4 mph 0.00 in Rain Light Freezing Rain
7:46 AM 30.2 °F 17.8 °F 28.4 °F 93% 30.13 in 8.0 mi North 19.6 mph 29.9 mph 0.00 in   Overcast
7:53 AM 30.0 °F 16.6 °F 28.0 °F 92% 30.16 in 7.0 mi North 23.0 mph 31.1 mph 0.00 in   Overcast
8:06 AM 30.2 °F 17.4 °F 28.4 °F 93% 30.14 in 10.0 mi North 20.7 mph 29.9 mph N/A   Overcast
8:53 AM 30.0 °F 17.5 °F 28.0 °F 92% 30.21 in 9.0 mi North 19.6 mph 32.2 mph N/A   Overcast
9:53 AM 30.0 °F 17.2 °F 28.0 °F 92% 30.23 in 6.0 mi North 20.7 mph 33.4 mph N/A   Overcast
10:01 AM 30.2 °F 17.8 °F 28.4 °F 93% 30.20 in 4.0 mi North 19.6 mph 32.2 mph 0.00 in Rain Light Freezing Rain
10:08 AM 30.2 °F 18.9 °F 28.4 °F 93% 30.20 in 4.0 mi North 16.1 mph 28.8 mph 0.00 in Rain Light Freezing Rain
10:10 AM 30.2 °F 19.3 °F 28.4 °F 93% 30.20 in 4.0 mi North 15.0 mph 27.6 mph 0.00 in Snow Light Snow
10:22 AM 30.2 °F 18.1 °F 28.4 °F 93% 30.20 in 4.0 mi North 18.4 mph 31.1 mph 0.00 in Rain Light Freezing Rain
10:53 AM 30.9 °F 18.4 °F 28.9 °F 92% 30.24 in 4.0 mi North 20.7 mph 27.6 mph 0.00 in Rain Light Freezing Rain
11:16 AM 30.2 °F 16.5 °F 28.4 °F 93% 30.20 in 10.0 mi North 24.2 mph 33.4 mph 0.00 in Rain Light Freezing Rain
11:25 AM 30.2 °F 17.8 °F 28.4 °F 93% 30.21 in 10.0 mi North 19.6 mph 32.2 mph 0.00 in   Overcast
11:53 AM 30.9 °F 18.4 °F 28.9 °F 92% 30.25 in 9.0 mi North 20.7 mph 31.1 mph 0.00 in   Overcast
12:34 PM 30.2 °F 17.8 °F 28.4 °F 93% 30.21 in 6.0 mi North 19.6 mph 32.2 mph 0.00 in Rain Light Freezing Rain
12:41 PM 32.0 °F 18.9 °F 28.4 °F 87% 30.21 in 9.0 mi North 24.2 mph 32.2 mph 0.00 in Rain Light Freezing Rain
12:53 PM 32.0 °F 20.1 °F 28.9 °F 88% 30.25 in 10.0 mi North 19.6 mph 28.8 mph 0.00 in   Overcast
1:06 PM 32.0 °F 20.1 °F 30.2 °F 93% 30.21 in 6.0 mi North 19.6 mph 26.5 mph 0.00 in Rain Light Freezing Rain
1:34 PM 32.0 °F 19.5 °F 28.4 °F 87% 30.19 in 10.0 mi North 21.9 mph 29.9 mph 0.00 in   Overcast
1:53 PM 32.0 °F 20.5 °F 28.9 °F 88% 30.23 in 10.0 mi North 18.4 mph 31.1 mph 0.00 in   Overcast
2:02 PM 32.0 °F 18.9 °F 28.4 °F 87% 30.18 in 10.0 mi North 24.2 mph 32.2 mph N/A   Overcast
2:48 PM 32.0 °F 19.8 °F 28.4 °F 87% 30.19 in 10.0 mi North 20.7 mph 28.8 mph N/A   Overcast
2:53 PM 32.0 °F 20.8 °F 28.0 °F 85% 30.24 in 10.0 mi North 17.3 mph 27.6 mph N/A   Overcast
3:02 PM 32.0 °F 20.5 °F 28.4 °F 87% 30.19 in 10.0 mi North 18.4 mph 26.5 mph N/A   Overcast
3:24 PM 32.0 °F 20.5 °F 28.4 °F 87% 30.19 in 10.0 mi North 18.4 mph 29.9 mph N/A   Overcast
3:53 PM 32.0 °F 20.5 °F 27.0 °F 82% 30.24 in 10.0 mi North 18.4 mph 27.6 mph N/A   Overcast
4:53 PM 33.1 °F 21.2 °F 26.1 °F 75% 30.22 in 10.0 mi North 20.7 mph 27.6 mph N/A   Overcast
5:53 PM 33.1 °F 21.5 °F 27.0 °F 78% 30.22 in 10.0 mi North 19.6 mph 24.2 mph N/A   Overcast
6:53 PM 34.0 °F 23.0 °F 25.0 °F 70% 30.24 in 10.0 mi North 18.4 mph 26.5 mph N/A   Overcast
7:18 PM 33.8 °F 22.8 °F 24.8 °F 70% 30.20 in 10.0 mi North 18.4 mph 23.0 mph N/A   Overcast
7:53 PM 34.0 °F 24.6 °F 25.0 °F 70% 30.27 in 10.0 mi North 13.8 mph 21.9 mph N/A   Overcast
8:53 PM 33.1 °F 24.4 °F 25.0 °F 72% 30.28 in 10.0 mi North 11.5 mph - N/A   Overcast
9:53 PM 32.0 °F 22.5 °F 27.0 °F 82% 30.31 in 6.0 mi North 12.7 mph - 0.00 in Snow Light Snow
10:08 PM 30.2 °F 19.8 °F 28.4 °F 93% 30.30 in 2.0 mi North 13.8 mph - 0.00 in Snow Light Snow
10:18 PM 30.2 °F 21.9 °F 28.4 °F 93% 30.30 in 1.8 mi North 9.2 mph - 0.00 in Snow Light Snow
10:23 PM 30.2 °F 21.9 °F 28.4 °F 93% 30.30 in 2.0 mi NNW 9.2 mph - 0.00 in Snow Light Snow
10:35 PM 30.2 °F 21.3 °F 28.4 °F 93% 30.30 in 4.0 mi NNW 10.4 mph - 0.00 in Snow Light Snow
10:53 PM 30.0 °F 23.2 °F 28.0 °F 92% 30.35 in 10.0 mi North 6.9 mph - 0.00 in   Partly Cloudy
11:53 PM 30.0 °F 24.1 °F 28.0 °F 92% 30.35 in 10.0 mi NW 5.8 mph - N/A   Clear